Regional Weather Roundup
Issued by NWS Northern Indiana

Home | Current Version | Previous Version | Graphics & Text | Print | Product List | Glossary On
Versions: 1 2 3 4 5 6 7 8 9 10 11 12 13 14 15 16 17 18 19 20 21 22 23 24 25 26 27 28 29 30 31 32 33 34 35 36 37 38 39 40 41 42 43 44 45 46 47 48 49 50
638
ASUS43 KIWX 251301
RWRIWX

KIWX WEATHER ROUNDUP
NATIONAL WEATHER SERVICE NORTHERN INDIANA
900 AM EDT MON SEP 25 2017

NOTE: "FAIR" INDICATES FEW OR NO CLOUDS BELOW 12,000 FEET WITH NO
SIGNIFICANT WEATHER AND/OR OBSTRUCTIONS TO VISIBILITY.

* THESE STATIONS ARE NOT UNDER NWS QUALITY CONTROL. THEY ALSO MAY NOT
  REPORT WEATHER SUCH AS PRECIPITATION OR FOG.

INZ001>027-251400-
NORTHERN INDIANA

CITY           SKY/WX    TMP DP  RH WIND       PRES   REMARKS
GARY*          MOSUNNY   70  57  64 S3        30.04R
SOUTH BEND     SUNNY     66  61  84 E3        30.06S
ELKHART*       SUNNY     64  61  88 CALM      30.06S
GOSHEN         SUNNY     63  60  90 CALM      30.07S FOG
FORT WAYNE     MOSUNNY   67  60  78 CALM      30.08R
PERU/GRISSOM   SUNNY     66  58  75 SE3       30.05S

$$
INZ028>050-251400-
CENTRAL INDIANA

CITY           SKY/WX    TMP DP  RH WIND       PRES   REMARKS
LAFAYETTE      SUNNY     63  61  93 CALM      30.04S
KOKOMO*        SUNNY     65  60  84 CALM      30.07S
MUNCIE*        SUNNY     69  59  70 CALM      30.07S
INDIANAPOLIS   PTSUNNY   70  58  65 CALM      30.06R

$$
MIZ043>046-050>051-056>058-064>065-071>073-077>080-251400-
SOUTHWEST LOWER MICHIGAN

CITY           SKY/WX    TMP DP  RH WIND       PRES   REMARKS
BATTLE CREEK   MOSUNNY   68  66  93 CALM      30.08S FOG
BENTON HARBOR  SUNNY     69  59  70 SE3       30.05R
COLDWATER*     MOSUNNY   66  66 100 CALM      30.08S FOG
HILLSDALE*     CLOUDY    68  66  94 CALM      30.08S FOG
HOLLAND        SUNNY     69  62  78 CALM      30.05S
GRAND RAPIDS   MOSUNNY   70  65  84 CALM      30.06S
KALAMAZOO      MOSUNNY   65  62  90 CALM      30.08S FOG
STURGIS*       SUNNY     65  65  97 CALM      30.06S FOG
THREE RIVERS*  FAIR      64  62  94 CALM      30.07S FOG

$$
OHZ001>008-015>018-024>025-251400-
NORTHWEST OHIO

CITY           SKY/WX    TMP DP  RH WIND       PRES   REMARKS
DEFIANCE       MOSUNNY   64  62  93 CALM      30.07S FOG
FINDLAY        MOSUNNY   71  64  78 CALM      30.07R
TOLEDO EXPRESS MOSUNNY   71  68  90 CALM      30.07R
TOLEDO METCALF MOSUNNY   71  68  90 CALM      30.07S FOG
LIMA           SUNNY     69  63  81 CALM      30.08R

$$
AND FOR LAKE MICHIGAN COASTAL AND OPEN LAKE BUOY OBSERVATIONS

STATION/POSITION TEMP    WIND        PRES    VSBY  WAVE
                 AIR SEA DIR/SP/G                  HT/PER
                 (F)     (DEG/KT/KT) (MB)    (MI)  (FT/S)
CALUMET HARBOR    71     180/  4/  5 1016.0S
MICHIGAN CITY     70     130/  9/ 10   N/A
BURNS HARBOR      72     170/  7/ 12 1017.3S
SAINT JOSEPH      67     130/  3/  6 1017.9
SOUTH LAKE BUOY   72 71  150/  8/ 10 1016.4          1
4 MI NW BRIDGMAN  71 71  170/  8/ 10 1017.1R         1
MICHIGAN CITY     70 72  160/  8/ 10   N/A           1

$$
&&




USA.gov is the U.S. government's official web portal to all federal, state and local government web resources and services.